Location: Most
(50.5133°N, 13.6207°E)
Time: 09:47:23
(UTC+01:00)

Oscar 11 - Pass Details

Date: 03 December 2022
Orbit: 611 x 621 km, 97.6° (Epoch: 28 January)

Event Time Altitude Azimuth Distance (km) Brightness Sun altitude
Rises 05:40:17 0° 7° (N) 2,892 10.4 -19.2°
Reaches altitude 10° 05:42:36 10° 358° (N) 1,981 9.5 -18.8°
Enters shadow 05:45:23 30° 326° (NW) 1,111 8.0 -18.4°
